owner,sensor,date,latitude,longitude,vertical_datum,wind_speed,wind_to_direction,wind_speed_of_gust,qcFlag 
NDBC,ioos:station:wmo:42003:1,2010-08-01T00:00:00Z,26.0070,-85.6480,5.0,3.6,210.0,,'1111122,1111122,1111122' 
NDBC,ioos:station:wmo:42003:1,2010-08-01T01:00:00Z,26.0070,-85.6480,5.0,2.6,210.0,,'1111122,1111122,1111122' 
NDBC,ioos:station:wmo:42003:1,2010-08-01T02:00:00Z,26.0070,-85.6480,5.0,3.6,200.0,,'1111122,1111122,1111122' 
NDBC,ioos:station:wmo:42003:1,2010-08-01T03:00:00Z,26.0070,-85.6480,5.0,4.6,200.0,,'1111122,1111122,1111122' 
NDBC,ioos:station:wmo:42003:1,2010-08-01T04:00:00Z,26.0070,-85.6480,5.0,3.6,190.0,,'1111122,1111122,1111122' 
NDBC,ioos:station:wmo:42003:1,2010-08-01T05:00:00Z,26.0070,-85.6480,5.0,3.6,190.0,,'1111122,1111122,1111122' 
NDBC,ioos:station:wmo:42003:1,2010-08-01T06:00:00Z,26.0070,-85.6480,5.0,3.6,190.0,,'1111122,1111122,1111122' 
NDBC,ioos:station:wmo:42003:1,2010-08-01T07:00:00Z,26.0070,-85.6480,5.0,3.6,200.0,,'1111122,1111122,1111122' 
NDBC,ioos:station:wmo:42003:1,2010-08-01T08:00:00Z,26.0070,-85.6480,5.0,3.6,190.0,,'1111122,1111122,1111122' 
NDBC,ioos:station:wmo:42003:1,2010-08-01T09:00:00Z,26.0070,-85.6480,5.0,3.6,190.0,,'1111122,1111122,1111122' 
NDBC,ioos:station:wmo:42003:1,2010-08-01T10:00:00Z,26.0070,-85.6480,5.0,2.6,180.0,,'1111122,1111122,1111122' 
NDBC,ioos:station:wmo:42003:1,2010-08-01T11:00:00Z,26.0070,-85.6480,5.0,1.5,190.0,,'1111122,1111122,1111122' 
NDBC,ioos:station:wmo:42003:1,2010-08-01T12:00:00Z,26.0070,-85.6480,5.0,1.5,220.0,,'1111122,1111122,1111122' 
NDBC,ioos:station:wmo:42003:1,2010-08-01T13:00:00Z,26.0070,-85.6480,5.0,1.5,210.0,,'1111122,1111122,1111122' 
NDBC,ioos:station:wmo:42003:1,2010-08-01T14:00:00Z,26.0070,-85.6480,5.0,1.5,160.0,,'1111122,1111122,1111122' 
NDBC,ioos:station:wmo:42003:1,2010-08-01T15:00:00Z,26.0070,-85.6480,5.0,0.5,140.0,,'1111122,1111122,1111122' 
NDBC,ioos:station:wmo:42003:1,2010-08-01T16:00:00Z,26.0070,-85.6480,5.0,2.6,150.0,,'1111122,1111122,1111122' 
NDBC,ioos:station:wmo:42003:1,2010-08-01T17:00:00Z,26.0070,-85.6480,5.0,2.6,160.0,,'1111122,1111122,1111122' 
NDBC,ioos:station:wmo:42003:1,2010-08-01T18:00:00Z,26.0070,-85.6480,5.0,2.6,170.0,,'1111122,1111122,1111122' 
NDBC,ioos:station:wmo:42003:1,2010-08-01T19:00:00Z,26.0070,-85.6480,5.0,1.5,190.0,,'1111122,1111122,1111122' 
NDBC,ioos:station:wmo:42003:1,2010-08-01T20:00:00Z,26.0070,-85.6480,5.0,3.6,190.0,,'1111122,1111122,1111122' 
NDBC,ioos:station:wmo:42003:1,2010-08-01T21:00:00Z,26.0070,-85.6480,5.0,2.6,190.0,,'1111122,1111122,1111122' 
NDBC,ioos:station:wmo:42003:1,2010-08-01T22:00:00Z,26.0070,-85.6480,5.0,1.5,190.0,,'1111122,1111122,1111122' 
NDBC,ioos:station:wmo:42003:1,2010-08-01T23:00:00Z,26.0070,-85.6480,5.0,2.6,190.0,,'1111122,1111122,1111122' 
NDBC,ioos:station:wmo:42003:1,2010-08-02T00:00:00Z,26.0070,-85.6480,5.0,3.6,170.0,,'1111122,1111122,1111122' 
NDBC,ioos:station:wmo:42003:1,2010-08-02T01:00:00Z,26.0070,-85.6480,5.0,1.5,170.0,,'1111122,1111122,1111122' 
NDBC,ioos:station:wmo:42003:1,2010-08-02T02:00:00Z,26.0070,-85.6480,5.0,2.6,180.0,,'1111122,1111122,1111122' 
NDBC,ioos:station:wmo:42003:1,2010-08-02T03:00:00Z,26.0070,-85.6480,5.0,2.6,160.0,,'1111122,1111122,1111122' 
NDBC,ioos:station:wmo:42003:1,2010-08-02T04:00:00Z,26.0070,-85.6480,5.0,1.5,170.0,,'1111122,1111122,1111122' 
NDBC,ioos:station:wmo:42003:1,2010-08-02T05:00:00Z,26.0070,-85.6480,5.0,3.6,160.0,,'1111122,1111122,1111122' 
NDBC,ioos:station:wmo:42003:1,2010-08-02T06:00:00Z,26.0070,-85.6480,5.0,3.6,140.0,,'1111122,1111122,1111122' 
NDBC,ioos:station:wmo:42003:1,2010-08-02T07:00:00Z,26.0070,-85.6480,5.0,3.6,150.0,,'1111122,1111122,1111122' 
NDBC,ioos:station:wmo:42003:1,2010-08-02T08:00:00Z,26.0070,-85.6480,5.0,2.6,170.0,,'1111122,1111122,1111122' 
NDBC,ioos:station:wmo:42003:1,2010-08-02T09:00:00Z,26.0070,-85.6480,5.0,4.6,210.0,,'1111122,1111122,1111122' 
NDBC,ioos:station:wmo:42003:1,2010-08-02T10:00:00Z,26.0070,-85.6480,5.0,4.6,200.0,,'1111122,1111122,1111122' 
NDBC,ioos:station:wmo:42003:1,2010-08-02T11:00:00Z,26.0070,-85.6480,5.0,1.5,210.0,,'1111122,1111122,1111122' 
NDBC,ioos:station:wmo:42003:1,2010-08-02T13:00:00Z,26.0070,-85.6480,5.0,0.5,40.0,,'1111122,1111122,1111122' 
NDBC,ioos:station:wmo:42003:1,2010-08-02T14:00:00Z,26.0070,-85.6480,5.0,0.5,60.0,,'1111122,1111122,1111122' 
NDBC,ioos:station:wmo:42003:1,2010-08-02T15:00:00Z,26.0070,-85.6480,5.0,1.5,90.0,,'1111122,1111122,1111122' 
NDBC,ioos:station:wmo:42003:1,2010-08-02T16:00:00Z,26.0070,-85.6480,5.0,2.6,90.0,,'1111122,1111122,1111122' 
NDBC,ioos:station:wmo:42003:1,2010-08-02T17:00:00Z,26.0070,-85.6480,5.0,2.6,100.0,,'1111122,1111122,1111122' 
NDBC,ioos:station:wmo:42003:1,2010-08-02T18:00:00Z,26.0070,-85.6480,5.0,2.6,120.0,,'1111122,1111122,1111122' 
NDBC,ioos:station:wmo:42003:1,2010-08-02T19:00:00Z,26.0070,-85.6480,5.0,2.6,130.0,,'1111122,1111122,1111122' 
NDBC,ioos:station:wmo:42003:1,2010-08-02T20:00:00Z,26.0070,-85.6480,5.0,1.5,110.0,,'1111122,1111122,1111122' 
NDBC,ioos:station:wmo:42003:1,2010-08-02T21:00:00Z,26.0070,-85.6480,5.0,2.6,120.0,,'1111122,1111122,1111122' 
NDBC,ioos:station:wmo:42003:1,2010-08-02T22:00:00Z,26.0070,-85.6480,5.0,2.6,120.0,,'1111122,1111122,1111122' 
NDBC,ioos:station:wmo:42003:1,2010-08-02T23:00:00Z,26.0070,-85.6480,5.0,2.6,120.0,,'1111122,1111122,1111122' 
NDBC,ioos:station:wmo:42003:1,2010-08-03T00:00:00Z,26.0070,-85.6480,5.0,2.6,130.0,,'1111122,1111122,1111122' 
NDBC,ioos:station:wmo:42003:1,2010-08-03T01:00:00Z,26.0070,-85.6480,5.0,2.6,120.0,,'1111122,1111122,1111122' 
NDBC,ioos:station:wmo:42003:1,2010-08-03T02:00:00Z,26.0070,-85.6480,5.0,1.5,80.0,,'1111122,1111122,1111122' 
NDBC,ioos:station:wmo:42003:1,2010-08-03T03:00:00Z,26.0070,-85.6480,5.0,0.5,70.0,,'1111122,1111122,1111122' 
NDBC,ioos:station:wmo:42003:1,2010-08-03T04:00:00Z,26.0070,-85.6480,5.0,0.5,100.0,,'1111122,1111122,1111122' 
NDBC,ioos:station:wmo:42003:1,2010-08-03T05:00:00Z,26.0070,-85.6480,5.0,0.5,80.0,,'1111122,1111122,1111122' 
NDBC,ioos:station:wmo:42003:1,2010-08-03T06:00:00Z,26.0070,-85.6480,5.0,2.6,100.0,,'1111122,1111122,1111122' 
NDBC,ioos:station:wmo:42003:1,2010-08-03T07:00:00Z,26.0070,-85.6480,5.0,2.6,110.0,,'1111122,1111122,1111122' 
NDBC,ioos:station:wmo:42003:1,2010-08-03T08:00:00Z,26.0070,-85.6480,5.0,1.5,130.0,,'1111122,1111122,1111122' 
NDBC,ioos:station:wmo:42003:1,2010-08-03T11:00:00Z,26.0070,-85.6480,5.0,1.5,110.0,,'1111122,1111122,1111122' 
NDBC,ioos:station:wmo:42003:1,2010-08-03T12:00:00Z,26.0070,-85.6480,5.0,1.5,70.0,,'1111122,1111122,1111122' 
NDBC,ioos:station:wmo:42003:1,2010-08-03T13:00:00Z,26.0070,-85.6480,5.0,1.5,60.0,,'1111122,1111122,1111122' 
NDBC,ioos:station:wmo:42003:1,2010-08-03T14:00:00Z,26.0070,-85.6480,5.0,1.5,50.0,,'1111122,1111122,1111122' 
NDBC,ioos:station:wmo:42003:1,2010-08-03T15:00:00Z,26.0070,-85.6480,5.0,1.5,40.0,,'1111122,1111122,1111122' 
NDBC,ioos:station:wmo:42003:1,2010-08-03T16:00:00Z,26.0070,-85.6480,5.0,2.6,50.0,,'1111122,1111122,1111122' 
NDBC,ioos:station:wmo:42003:1,2010-08-03T17:00:00Z,26.0070,-85.6480,5.0,2.6,50.0,,'1111122,1111122,1111122' 
NDBC,ioos:station:wmo:42003:1,2010-08-03T18:00:00Z,26.0070,-85.6480,5.0,2.6,40.0,,'1111122,1111122,1111122' 
NDBC,ioos:station:wmo:42003:1,2010-08-03T19:00:00Z,26.0070,-85.6480,5.0,2.6,30.0,,'1111122,1111122,1111122' 
NDBC,ioos:station:wmo:42003:1,2010-08-03T20:00:00Z,26.0070,-85.6480,5.0,3.6,20.0,,'1111122,1111122,1111122' 
NDBC,ioos:station:wmo:42003:1,2010-08-03T21:00:00Z,26.0070,-85.6480,5.0,3.6,20.0,,'1111122,1111122,1111122' 
NDBC,ioos:station:wmo:42003:1,2010-08-03T22:00:00Z,26.0070,-85.6480,5.0,2.6,30.0,,'1111122,1111122,1111122' 
NDBC,ioos:station:wmo:42003:1,2010-08-03T23:00:00Z,26.0070,-85.6480,5.0,2.6,30.0,,'1111122,1111122,1111122' 
NDBC,ioos:station:wmo:42003:1,2010-08-04T00:00:00Z,26.0070,-85.6480,5.0,2.6,40.0,,'1111122,1111122,1111122' 
NDBC,ioos:station:wmo:42003:1,2010-08-04T01:00:00Z,26.0070,-85.6480,5.0,3.6,40.0,,'1111122,1111122,1111122' 
NDBC,ioos:station:wmo:42003:1,2010-08-04T02:00:00Z,26.0070,-85.6480,5.0,2.6,40.0,,'1111122,1111122,1111122' 
NDBC,ioos:station:wmo:42003:1,2010-08-04T03:00:00Z,26.0070,-85.6480,5.0,2.6,50.0,,'1111122,1111122,1111122' 
NDBC,ioos:station:wmo:42003:1,2010-08-04T04:00:00Z,26.0070,-85.6480,5.0,2.6,40.0,,'1111122,1111122,1111122' 
NDBC,ioos:station:wmo:42003:1,2010-08-04T05:00:00Z,26.0070,-85.6480,5.0,2.6,40.0,,'1111122,1111122,1111122' 
NDBC,ioos:station:wmo:42003:1,2010-08-04T06:00:00Z,26.0070,-85.6480,5.0,2.6,20.0,,'1111122,1111122,1111122' 
NDBC,ioos:station:wmo:42003:1,2010-08-04T07:00:00Z,26.0070,-85.6480,5.0,2.6,30.0,,'1111122,1111122,1111122' 
NDBC,ioos:station:wmo:42003:1,2010-08-04T08:00:00Z,26.0070,-85.6480,5.0,3.6,20.0,,'1111122,1111122,1111122' 
NDBC,ioos:station:wmo:42003:1,2010-08-04T09:00:00Z,26.0070,-85.6480,5.0,4.6,30.0,,'1111122,1111122,1111122' 
NDBC,ioos:station:wmo:42003:1,2010-08-04T10:00:00Z,26.0070,-85.6480,5.0,4.6,10.0,,'1111122,1111122,1111122' 
NDBC,ioos:station:wmo:42003:1,2010-08-04T11:00:00Z,26.0070,-85.6480,5.0,3.6,20.0,,'1111122,1111122,1111122' 
NDBC,ioos:station:wmo:42003:1,2010-08-04T12:00:00Z,26.0070,-85.6480,5.0,3.6,40.0,,'1111122,1111122,1111122' 
NDBC,ioos:station:wmo:42003:1,2010-08-04T13:00:00Z,26.0070,-85.6480,5.0,2.6,50.0,,'1111122,1111122,1111122' 
NDBC,ioos:station:wmo:42003:1,2010-08-04T14:00:00Z,26.0070,-85.6480,5.0,1.5,90.0,,'1111122,1111122,1111122' 
NDBC,ioos:station:wmo:42003:1,2010-08-04T15:00:00Z,26.0070,-85.6480,5.0,3.6,20.0,,'1111122,1111122,1111122' 
NDBC,ioos:station:wmo:42003:1,2010-08-04T16:00:00Z,26.0070,-85.6480,5.0,4.6,340.0,,'1111122,1111122,1111122' 
NDBC,ioos:station:wmo:42003:1,2010-08-04T17:00:00Z,26.0070,-85.6480,5.0,4.6,350.0,,'1111122,1111122,1111122' 
NDBC,ioos:station:wmo:42003:1,2010-08-04T18:00:00Z,26.0070,-85.6480,5.0,3.6,10.0,,'1111122,1111122,1111122' 
NDBC,ioos:station:wmo:42003:1,2010-08-04T19:00:00Z,26.0070,-85.6480,5.0,5.7,360.0,,'1111122,1111122,1111122' 
NDBC,ioos:station:wmo:42003:1,2010-08-04T20:00:00Z,26.0070,-85.6480,5.0,3.6,10.0,,'1111122,1111122,1111122' 
NDBC,ioos:station:wmo:42003:1,2010-08-04T21:00:00Z,26.0070,-85.6480,5.0,3.6,20.0,,'1111122,1111122,1111122' 
NDBC,ioos:station:wmo:42003:1,2010-08-04T22:00:00Z,26.0070,-85.6480,5.0,2.6,50.0,,'1111122,1111122,1111122' 
NDBC,ioos:station:wmo:42003:1,2010-08-04T23:00:00Z,26.0070,-85.6480,5.0,2.6,30.0,,'1111122,1111122,1111122' 
NDBC,ioos:station:wmo:42003:1,2010-08-05T00:00:00Z,26.0070,-85.6480,5.0,2.6,80.0,,'1111122,1111122,1111122' 
NDBC,ioos:station:wmo:42003:1,2010-08-05T01:00:00Z,26.0070,-85.6480,5.0,2.6,90.0,,'1111122,1111122,1111122' 
NDBC,ioos:station:wmo:42003:1,2010-08-05T02:00:00Z,26.0070,-85.6480,5.0,2.6,90.0,,'1111122,1111122,1111122' 
NDBC,ioos:station:wmo:42003:1,2010-08-05T03:00:00Z,26.0070,-85.6480,5.0,1.5,110.0,,'1111122,1111122,1111122' 
NDBC,ioos:station:wmo:42003:1,2010-08-05T04:00:00Z,26.0070,-85.6480,5.0,1.5,100.0,,'1111122,1111122,1111122' 
NDBC,ioos:station:wmo:42003:1,2010-08-05T05:00:00Z,26.0070,-85.6480,5.0,1.5,130.0,,'1111122,1111122,1111122' 
NDBC,ioos:station:wmo:42003:1,2010-08-05T06:00:00Z,26.0070,-85.6480,5.0,1.5,110.0,,'1111122,1111122,1111122' 
NDBC,ioos:station:wmo:42003:1,2010-08-05T07:00:00Z,26.0070,-85.6480,5.0,2.6,140.0,,'1111122,1111122,1111122' 
NDBC,ioos:station:wmo:42003:1,2010-08-05T08:00:00Z,26.0070,-85.6480,5.0,2.6,150.0,,'1111122,1111122,1111122' 
NDBC,ioos:station:wmo:42003:1,2010-08-05T09:00:00Z,26.0070,-85.6480,5.0,2.6,140.0,,'1111122,1111122,1111122' 
NDBC,ioos:station:wmo:42003:1,2010-08-05T10:00:00Z,26.0070,-85.6480,5.0,2.6,140.0,,'1111122,1111122,1111122' 
NDBC,ioos:station:wmo:42003:1,2010-08-05T11:00:00Z,26.0070,-85.6480,5.0,1.5,140.0,,'1111122,1111122,1111122' 
NDBC,ioos:station:wmo:42003:1,2010-08-05T12:00:00Z,26.0070,-85.6480,5.0,1.5,150.0,,'1111122,1111122,1111122' 
NDBC,ioos:station:wmo:42003:1,2010-08-05T13:00:00Z,26.0070,-85.6480,5.0,2.6,180.0,,'1111122,1111122,1111122' 
NDBC,ioos:station:wmo:42003:1,2010-08-05T16:00:00Z,26.0070,-85.6480,5.0,1.5,170.0,,'1111122,1111122,1111122' 
NDBC,ioos:station:wmo:42003:1,2010-08-05T17:00:00Z,26.0070,-85.6480,5.0,5.7,160.0,,'1111122,1111122,1111122' 
NDBC,ioos:station:wmo:42003:1,2010-08-05T18:00:00Z,26.0070,-85.6480,5.0,1.5,210.0,,'1111122,1111122,1111122' 
NDBC,ioos:station:wmo:42003:1,2010-08-05T19:00:00Z,26.0070,-85.6480,5.0,1.5,200.0,,'1111122,1111122,1111122' 
NDBC,ioos:station:wmo:42003:1,2010-08-05T23:00:00Z,26.0070,-85.6480,5.0,1.5,160.0,,'1111122,1111122,1111122' 
NDBC,ioos:station:wmo:42003:1,2010-08-06T02:00:00Z,26.0070,-85.6480,5.0,1.5,160.0,,'1111122,1111122,1111122' 
NDBC,ioos:station:wmo:42003:1,2010-08-06T04:00:00Z,26.0070,-85.6480,5.0,0.5,120.0,,'1111122,1111122,1111122' 
NDBC,ioos:station:wmo:42003:1,2010-08-06T05:00:00Z,26.0070,-85.6480,5.0,0.5,120.0,,'1111122,1111122,1111122' 
NDBC,ioos:station:wmo:42003:1,2010-08-06T06:00:00Z,26.0070,-85.6480,5.0,0.5,180.0,,'1111122,1111122,1111122' 
NDBC,ioos:station:wmo:42003:1,2010-08-06T07:00:00Z,26.0070,-85.6480,5.0,0.5,170.0,,'1111122,1111122,1111122' 
NDBC,ioos:station:wmo:42003:1,2010-08-06T08:00:00Z,26.0070,-85.6480,5.0,2.6,150.0,,'1111122,1111122,1111122' 
NDBC,ioos:station:wmo:42003:1,2010-08-06T09:00:00Z,26.0070,-85.6480,5.0,2.6,160.0,,'1111122,1111122,1111122' 
NDBC,ioos:station:wmo:42003:1,2010-08-06T11:00:00Z,26.0070,-85.6480,5.0,1.5,190.0,,'1111122,1111122,1111122' 
NDBC,ioos:station:wmo:42003:1,2010-08-06T12:00:00Z,26.0070,-85.6480,5.0,1.5,150.0,,'1111122,1111122,1111122' 
NDBC,ioos:station:wmo:42003:1,2010-08-06T13:00:00Z,26.0070,-85.6480,5.0,2.6,160.0,,'1111122,1111122,1111122' 
NDBC,ioos:station:wmo:42003:1,2010-08-06T14:00:00Z,26.0070,-85.6480,5.0,1.5,170.0,,'1111122,1111122,1111122' 
NDBC,ioos:station:wmo:42003:1,2010-08-06T15:00:00Z,26.0070,-85.6480,5.0,1.5,190.0,,'1111122,1111122,1111122' 
NDBC,ioos:station:wmo:42003:1,2010-08-06T16:00:00Z,26.0070,-85.6480,5.0,1.5,210.0,,'1111122,1111122,1111122' 
NDBC,ioos:station:wmo:42003:1,2010-08-06T17:00:00Z,26.0070,-85.6480,5.0,1.5,210.0,,'1111122,1111122,1111122' 
NDBC,ioos:station:wmo:42003:1,2010-08-06T18:00:00Z,26.0070,-85.6480,5.0,1.5,230.0,,'1111122,1111122,1111122' 
NDBC,ioos:station:wmo:42003:1,2010-08-06T19:00:00Z,26.0070,-85.6480,5.0,1.5,250.0,,'1111122,1111122,1111122' 
NDBC,ioos:station:wmo:42003:1,2010-08-06T20:00:00Z,26.0070,-85.6480,5.0,0.5,230.0,,'1111122,1111122,1111122' 
NDBC,ioos:station:wmo:42003:1,2010-08-06T21:00:00Z,26.0070,-85.6480,5.0,1.5,280.0,,'1111122,1111122,1111122' 
NDBC,ioos:station:wmo:42003:1,2010-08-15T19:00:00Z,26.0070,-85.6480,5.0,2.6,320.0,,'1111122,1111122,1111122' 
NDBC,ioos:station:wmo:42003:1,2010-08-15T20:00:00Z,26.0070,-85.6480,5.0,2.6,320.0,,'1111122,1111122,1111122' 
NDBC,ioos:station:wmo:42003:1,2010-08-15T21:00:00Z,26.0070,-85.6480,5.0,1.5,330.0,,'1111122,1111122,1111122' 
NDBC,ioos:station:wmo:42003:1,2010-08-15T22:00:00Z,26.0070,-85.6480,5.0,1.5,330.0,,'1111122,1111122,1111122' 
NDBC,ioos:station:wmo:42003:1,2010-08-15T23:00:00Z,26.0070,-85.6480,5.0,2.6,330.0,,'1111122,1111122,1111122' 
NDBC,ioos:station:wmo:42003:1,2010-08-16T00:00:00Z,26.0070,-85.6480,5.0,2.6,340.0,,'1111122,1111122,1111122' 
NDBC,ioos:station:wmo:42003:1,2010-08-16T01:00:00Z,26.0070,-85.6480,5.0,2.6,360.0,,'1111122,1111122,1111122' 
NDBC,ioos:station:wmo:42003:1,2010-08-16T02:00:00Z,26.0070,-85.6480,5.0,1.5,20.0,,'1111122,1111122,1111122' 
NDBC,ioos:station:wmo:42003:1,2010-08-16T03:00:00Z,26.0070,-85.6480,5.0,0.5,70.0,,'1111122,1111122,1111122' 
NDBC,ioos:station:wmo:42003:1,2010-08-16T04:00:00Z,26.0070,-85.6480,5.0,0.5,140.0,,'1111122,1111122,1111122' 
NDBC,ioos:station:wmo:42003:1,2010-08-16T05:00:00Z,26.0070,-85.6480,5.0,0.5,170.0,,'1111122,1111122,1111122' 
NDBC,ioos:station:wmo:42003:1,2010-08-16T06:00:00Z,26.0070,-85.6480,5.0,1.5,160.0,,'1111122,1111122,1111122' 
NDBC,ioos:station:wmo:42003:1,2010-08-16T07:00:00Z,26.0070,-85.6480,5.0,2.6,180.0,,'1111122,1111122,1111122' 
NDBC,ioos:station:wmo:42003:1,2010-08-16T08:00:00Z,26.0070,-85.6480,5.0,3.6,190.0,,'1111122,1111122,1111122' 
NDBC,ioos:station:wmo:42003:1,2010-08-16T09:00:00Z,26.0070,-85.6480,5.0,3.6,220.0,,'1111122,1111122,1111122' 
NDBC,ioos:station:wmo:42003:1,2010-08-16T10:00:00Z,26.0070,-85.6480,5.0,3.6,210.0,,'1111122,1111122,1111122' 
NDBC,ioos:station:wmo:42003:1,2010-08-16T11:00:00Z,26.0070,-85.6480,5.0,3.6,200.0,,'1111122,1111122,1111122' 
NDBC,ioos:station:wmo:42003:1,2010-08-16T12:00:00Z,26.0070,-85.6480,5.0,2.6,210.0,,'1111122,1111122,1111122' 
NDBC,ioos:station:wmo:42003:1,2010-08-16T13:00:00Z,26.0070,-85.6480,5.0,3.6,210.0,,'1111122,1111122,1111122' 
NDBC,ioos:station:wmo:42003:1,2010-08-16T14:00:00Z,26.0070,-85.6480,5.0,3.6,220.0,,'1111122,1111122,1111122' 
NDBC,ioos:station:wmo:42003:1,2010-08-16T15:00:00Z,26.0070,-85.6480,5.0,3.6,230.0,,'1111122,1111122,1111122' 
NDBC,ioos:station:wmo:42003:1,2010-08-16T16:00:00Z,26.0070,-85.6480,5.0,3.6,220.0,,'1111122,1111122,1111122' 
NDBC,ioos:station:wmo:42003:1,2010-08-16T17:00:00Z,26.0070,-85.6480,5.0,2.6,220.0,,'1111122,1111122,1111122' 
NDBC,ioos:station:wmo:42003:1,2010-08-16T18:00:00Z,26.0070,-85.6480,5.0,2.6,230.0,,'1111122,1111122,1111122' 
NDBC,ioos:station:wmo:42003:1,2010-08-16T19:00:00Z,26.0070,-85.6480,5.0,2.6,240.0,,'1111122,1111122,1111122' 
NDBC,ioos:station:wmo:42003:1,2010-08-16T20:00:00Z,26.0070,-85.6480,5.0,3.6,260.0,,'1111122,1111122,1111122' 
NDBC,ioos:station:wmo:42003:1,2010-08-16T21:00:00Z,26.0070,-85.6480,5.0,3.6,250.0,,'1111122,1111122,1111122' 
NDBC,ioos:station:wmo:42003:1,2010-08-16T22:00:00Z,26.0070,-85.6480,5.0,2.6,240.0,,'1111122,1111122,1111122' 
NDBC,ioos:station:wmo:42003:1,2010-08-16T23:00:00Z,26.0070,-85.6480,5.0,1.5,240.0,,'1111122,1111122,1111122' 
NDBC,ioos:station:wmo:42003:1,2010-08-17T00:00:00Z,26.0070,-85.6480,5.0,1.5,230.0,,'1111122,1111122,1111122' 
NDBC,ioos:station:wmo:42003:1,2010-08-17T01:00:00Z,26.0070,-85.6480,5.0,2.6,180.0,,'1111122,1111122,1111122' 
NDBC,ioos:station:wmo:42003:1,2010-08-17T02:00:00Z,26.0070,-85.6480,5.0,3.6,160.0,,'1111122,1111122,1111122' 
NDBC,ioos:station:wmo:42003:1,2010-08-17T03:00:00Z,26.0070,-85.6480,5.0,3.6,140.0,,'1111122,1111122,1111122' 
NDBC,ioos:station:wmo:42003:1,2010-08-17T04:00:00Z,26.0070,-85.6480,5.0,4.6,140.0,,'1111122,1111122,1111122' 
NDBC,ioos:station:wmo:42003:1,2010-08-17T05:00:00Z,26.0070,-85.6480,5.0,3.6,150.0,,'1111122,1111122,1111122' 
NDBC,ioos:station:wmo:42003:1,2010-08-17T06:00:00Z,26.0070,-85.6480,5.0,5.7,150.0,,'1111122,1111122,1111122' 
NDBC,ioos:station:wmo:42003:1,2010-08-17T07:00:00Z,26.0070,-85.6480,5.0,5.7,160.0,,'1111122,1111122,1111122' 
NDBC,ioos:station:wmo:42003:1,2010-08-17T08:00:00Z,26.0070,-85.6480,5.0,5.7,160.0,,'1111122,1111122,1111122' 
NDBC,ioos:station:wmo:42003:1,2010-08-17T09:00:00Z,26.0070,-85.6480,5.0,5.7,170.0,,'1111122,1111122,1111122' 
NDBC,ioos:station:wmo:42003:1,2010-08-17T10:00:00Z,26.0070,-85.6480,5.0,5.7,170.0,,'1111122,1111122,1111122' 
NDBC,ioos:station:wmo:42003:1,2010-08-17T11:00:00Z,26.0070,-85.6480,5.0,5.7,170.0,,'1111122,1111122,1111122' 
NDBC,ioos:station:wmo:42003:1,2010-08-17T12:00:00Z,26.0070,-85.6480,5.0,4.6,160.0,,'1111122,1111122,1111122' 
NDBC,ioos:station:wmo:42003:1,2010-08-17T13:00:00Z,26.0070,-85.6480,5.0,4.6,170.0,,'1111122,1111122,1111122' 
NDBC,ioos:station:wmo:42003:1,2010-08-17T14:00:00Z,26.0070,-85.6480,5.0,2.6,160.0,,'1111122,1111122,1111122' 
NDBC,ioos:station:wmo:42003:1,2010-08-17T15:00:00Z,26.0070,-85.6480,5.0,3.6,160.0,,'1111122,1111122,1111122' 
NDBC,ioos:station:wmo:42003:1,2010-08-17T16:00:00Z,26.0070,-85.6480,5.0,3.6,160.0,,'1111122,1111122,1111122' 
NDBC,ioos:station:wmo:42003:1,2010-08-17T17:00:00Z,26.0070,-85.6480,5.0,3.6,160.0,,'1111122,1111122,1111122' 
NDBC,ioos:station:wmo:42003:1,2010-08-17T18:00:00Z,26.0070,-85.6480,5.0,2.6,160.0,,'1111122,1111122,1111122' 
NDBC,ioos:station:wmo:42003:1,2010-08-17T19:00:00Z,26.0070,-85.6480,5.0,2.6,130.0,,'1111122,1111122,1111122' 
NDBC,ioos:station:wmo:42003:1,2010-08-17T20:00:00Z,26.0070,-85.6480,5.0,2.6,180.0,,'1111122,1111122,1111122' 
NDBC,ioos:station:wmo:42003:1,2010-08-17T21:00:00Z,26.0070,-85.6480,5.0,2.6,200.0,,'1111122,1111122,1111122' 
NDBC,ioos:station:wmo:42003:1,2010-08-17T22:00:00Z,26.0070,-85.6480,5.0,2.6,190.0,,'1111122,1111122,1111122' 
NDBC,ioos:station:wmo:42003:1,2010-08-17T23:00:00Z,26.0070,-85.6480,5.0,2.6,160.0,,'1111122,1111122,1111122' 
NDBC,ioos:station:wmo:42003:1,2010-08-18T00:00:00Z,26.0070,-85.6480,5.0,2.6,130.0,,'1111122,1111122,1111122' 
NDBC,ioos:station:wmo:42003:1,2010-08-18T01:00:00Z,26.0070,-85.6480,5.0,3.6,150.0,,'1111122,1111122,1111122' 
NDBC,ioos:station:wmo:42003:1,2010-08-18T02:00:00Z,26.0070,-85.6480,5.0,3.6,140.0,,'1111122,1111122,1111122' 
NDBC,ioos:station:wmo:42003:1,2010-08-18T03:00:00Z,26.0070,-85.6480,5.0,4.6,180.0,,'1111122,1111122,1111122' 
NDBC,ioos:station:wmo:42003:1,2010-08-18T04:00:00Z,26.0070,-85.6480,5.0,4.6,230.0,,'1111122,1111122,1111122' 
NDBC,ioos:station:wmo:42003:1,2010-08-18T05:00:00Z,26.0070,-85.6480,5.0,0.5,260.0,,'1111122,1111122,1111122' 
NDBC,ioos:station:wmo:42003:1,2010-08-18T06:00:00Z,26.0070,-85.6480,5.0,2.6,220.0,,'1111122,1111122,1111122' 
NDBC,ioos:station:wmo:42003:1,2010-08-18T07:00:00Z,26.0070,-85.6480,5.0,1.5,210.0,,'1111122,1111122,1111122' 
NDBC,ioos:station:wmo:42003:1,2010-08-18T08:00:00Z,26.0070,-85.6480,5.0,2.6,190.0,,'1111122,1111122,1111122' 
NDBC,ioos:station:wmo:42003:1,2010-08-18T09:00:00Z,26.0070,-85.6480,5.0,2.6,180.0,,'1111122,1111122,1111122' 
NDBC,ioos:station:wmo:42003:1,2010-08-18T10:00:00Z,26.0070,-85.6480,5.0,4.6,170.0,,'1111122,1111122,1111122' 
NDBC,ioos:station:wmo:42003:1,2010-08-18T11:00:00Z,26.0070,-85.6480,5.0,5.7,180.0,,'1111122,1111122,1111122' 
NDBC,ioos:station:wmo:42003:1,2010-08-18T12:00:00Z,26.0070,-85.6480,5.0,4.6,170.0,,'1111122,1111122,1111122' 
NDBC,ioos:station:wmo:42003:1,2010-08-18T13:00:00Z,26.0070,-85.6480,5.0,5.7,180.0,,'1111122,1111122,1111122' 
NDBC,ioos:station:wmo:42003:1,2010-08-18T14:00:00Z,26.0070,-85.6480,5.0,5.7,190.0,,'1111122,1111122,1111122' 
NDBC,ioos:station:wmo:42003:1,2010-08-18T16:00:00Z,26.0070,-85.6480,5.0,3.6,210.0,,'1111122,1111122,1111122' 
NDBC,ioos:station:wmo:42003:1,2010-08-18T17:00:00Z,26.0070,-85.6480,5.0,4.6,210.0,,'1111122,1111122,1111122' 
NDBC,ioos:station:wmo:42003:1,2010-08-18T18:00:00Z,26.0070,-85.6480,5.0,3.6,210.0,,'1111122,1111122,1111122' 
NDBC,ioos:station:wmo:42003:1,2010-08-18T19:00:00Z,26.0070,-85.6480,5.0,3.6,210.0,,'1111122,1111122,1111122' 
NDBC,ioos:station:wmo:42003:1,2010-08-18T20:00:00Z,26.0070,-85.6480,5.0,3.6,190.0,,'1111122,1111122,1111122' 
NDBC,ioos:station:wmo:42003:1,2010-08-18T21:00:00Z,26.0070,-85.6480,5.0,3.6,190.0,,'1111122,1111122,1111122' 
NDBC,ioos:station:wmo:42003:1,2010-08-18T22:00:00Z,26.0070,-85.6480,5.0,6.7,240.0,,'1111122,1111122,1111122' 
NDBC,ioos:station:wmo:42003:1,2010-08-18T23:00:00Z,26.0070,-85.6480,5.0,2.6,300.0,,'1111122,1111122,1111122' 
NDBC,ioos:station:wmo:42003:1,2010-08-19T01:00:00Z,26.0070,-85.6480,5.0,0.5,260.0,,'1111122,1111122,1111122' 
NDBC,ioos:station:wmo:42003:1,2010-08-19T03:00:00Z,26.0070,-85.6480,5.0,0.5,320.0,,'1111122,1111122,1111122' 
NDBC,ioos:station:wmo:42003:1,2010-08-19T06:00:00Z,26.0070,-85.6480,5.0,1.5,130.0,,'1111122,1111122,1111122' 
NDBC,ioos:station:wmo:42003:1,2010-08-19T07:00:00Z,26.0070,-85.6480,5.0,2.6,170.0,,'1111122,1111122,1111122' 
NDBC,ioos:station:wmo:42003:1,2010-08-19T08:00:00Z,26.0070,-85.6480,5.0,1.5,160.0,,'1111122,1111122,1111122' 
NDBC,ioos:station:wmo:42003:1,2010-08-19T09:00:00Z,26.0070,-85.6480,5.0,1.5,150.0,,'1111122,1111122,1111122' 
NDBC,ioos:station:wmo:42003:1,2010-08-19T10:00:00Z,26.0070,-85.6480,5.0,3.6,160.0,,'1111122,1111122,1111122' 
NDBC,ioos:station:wmo:42003:1,2010-08-19T11:00:00Z,26.0070,-85.6480,5.0,3.6,150.0,,'1111122,1111122,1111122' 
NDBC,ioos:station:wmo:42003:1,2010-08-19T12:00:00Z,26.0070,-85.6480,5.0,3.6,140.0,,'1111122,1111122,1111122' 
NDBC,ioos:station:wmo:42003:1,2010-08-19T13:00:00Z,26.0070,-85.6480,5.0,2.6,150.0,,'1111122,1111122,1111122' 
NDBC,ioos:station:wmo:42003:1,2010-08-19T14:00:00Z,26.0070,-85.6480,5.0,2.6,140.0,,'1111122,1111122,1111122' 